Hourly Data Report for April 08, 2020

MIRAMICHI RCS
NEW BRUNSWICK
Current Station Operator: ECCC - MSC

47°00'34.000" N
65°27'54.000" W
33.00 m
8100989
71744
ACQ

Download Data

Hourly Data (April 2020)
Hourly Data Report for April 8, 2020
TIME
LST
Temp Definition
°C
Dew Point Definition
°C
Rel Hum Definition
%
Precip. Amount Definition
mm

Wind Dir Definition
10's deg

Wind Spd Definition
km/h
Visibility Definition
km
Stn Press Definition
kPa
Hmdx Definition


Wind Chill Definition


Weather Definition


00:00 -2.7 -8.2 66 LegendMM 25 3   100.11   -4 LegendNANA
01:00 -2.6 -7.9 67 LegendMM 27 2   100.05   -3 LegendNANA
02:00 -2.7 -8.0 67 LegendMM 22 4   99.99   -4 LegendNANA
03:00 -2.0 -9.5 56 LegendMM 25 10   99.95   -6 LegendNANA
04:00 -2.2 -9.6 57 LegendMM 25 6   99.92   -5 LegendNANA
05:00 -3.6 -9.4 64 LegendMM 26 3   99.89   -5 LegendNANA
06:00 -3.5 -9.1 65 LegendMM 25 7   99.90   -6 LegendNANA
07:00 -2.9 -8.5 65 LegendMM 27 5   99.94   -5 LegendNANA
08:00 -0.6 -9.0 53 LegendMM 33 5   99.96   -2 LegendNANA
09:00 1.4 -8.1 49 LegendMM 36 7   99.96     LegendNANA
10:00 1.3 -8.1 49 LegendMM 1 9   99.97     LegendNANA
11:00 1.4 -5.4 61 LegendMM 7 7   100.00     LegendNANA
12:00 2.0 -7.6 49 LegendMM 4 4   99.94     LegendNANA
13:00 1.6 -5.4 60 LegendMM 7 8   99.92     LegendNANA
14:00 2.9 -8.5 43 LegendMM 4 7   99.87     LegendNANA
15:00 2.1 -6.4 53 LegendMM 9 10   99.82     LegendNANA
16:00 2.8 -5.9 53 LegendMM 10 8   99.81     LegendNANA
17:00 3.2 -7.7 45 LegendMM 11 5   99.80     LegendNANA
18:00 1.7 -8.2 48 LegendMM 9 7   99.84     LegendNANA
19:00 -0.3 -5.6 68 LegendMM 12 12   99.85   -4 LegendNANA
20:00 -2.2 -6.7 71 LegendMM 14 5   99.90   -4 LegendNANA
21:00 -2.2 -6.3 74 LegendMM 26 2   99.95   -3 LegendNANA
22:00 -2.6 -6.6 74 LegendMM 25 5   99.93   -5 LegendNANA
23:00 -2.8 -6.8 74 LegendMM 27 6   99.89   -5 LegendNANA

Notes on Data Quality.

Legend

  • E = Estimated
  • M = Missing
  • NA = Not Available*
  • [empty] = Indicates an unobserved value
Date modified: